Simultaneous Nadir Overpasses (SNOs) Predictions

Prediction of SNOs between AQUA and METOP-A Satellite Orbit:

Table of predicted SNOs for the next 14.0 days since TLE Epoch: 2/17/2012
Index Date (AQUA) Time (AQUA) AQUA Lat,Lon Date (METOP-A) Time (METOP-A) METOP-A Lat,Lon Distance(km) Time Diff (sec)
1 02/18/2012 11:42:17 73.77, -1.32 02/18/2012 11:41:17 73.76, -1.27 1.87 60
2 02/18/2012 12:31:44 -73.85, 166.15 02/18/2012 12:31:58 -73.82, 166.20 3.00 14
3 02/18/2012 13:21:20 74.28, -27.21 02/18/2012 13:22:28 74.29, -25.32 56.95 68
4 02/21/2012 07:16:32 73.75, 65.15 02/21/2012 07:15:40 73.78, 65.17 2.43 52
5 02/21/2012 08:05:59 -73.83,-127.37 02/21/2012 08:06:21 -73.84,-127.35 1.57 22
6 02/21/2012 08:55:41 74.58, 38.52 02/21/2012 08:56:45 74.59, 41.89 99.68 64
7 02/24/2012 02:50:48 73.77, 131.55 02/24/2012 02:50:04 73.78, 131.58 1.38 44
8 02/24/2012 03:40:15 -73.84, -60.96 02/24/2012 03:40:45 -73.85, -60.93 1.13 30
9 02/26/2012 22:25:03 73.77,-162.00 02/26/2012 22:24:28 73.77,-162.03 1.18 35
10 02/26/2012 23:14:30 -73.83, 5.50 02/26/2012 23:15:09 -73.84, 5.46 1.62 39
11 02/29/2012 17:59:17 73.79, -95.61 02/29/2012 17:58:50 73.80, -95.55 2.18 27
12 02/29/2012 18:48:44 -73.85, 71.90 02/29/2012 18:49:31 -73.87, 71.95 2.53 47




NCC Satellite Simultaneous Nadir Overpasses (SNOs) Prediction Service
